Probability
39 23 0 0 0 0 0 0 0 0 0 0 0 0 0 0 0 0 0 3 3 13 26 35 32 42 48 52 58 52 48 45 48 48 61 61 71 68 68 71 68 65 65 61 65 65 61 58 58
29 13 0 0 0 0 0 0 0 0 0 0 0 0 0 3 3 3 6 6 13 23 26 26 35 39 55 58 55 52 48 48 42 48 52 61 61 61 61 65 61 61 61 58 65 68 58 52 48
23 0 0 0 0 0 0 0 0 0 0 0 0 0 3 3 3 3 6 16 13 16 19 29 39 42 52 55 45 45 52 45 35 45 55 42 45 52 55 55 61 58 48 58 65 58 45 42 39
3 0 0 0 0 0 0 0 0 0 3 0 0 0 3 3 3 3 10 16 10 23 23 32 39 39 42 42 39 39 42 39 35 42 45 42 42 55 52 48 45 48 42 42 48 45 42 32 35
0 0 0 0 0 0 0 0 0 0 3 0 0 0 3 3 6 10 13 10 10 23 26 29 42 35 35 39 35 35 39 35 35 42 39 35 35 35 32 45 48 42 35 29 32 42 29 29 29
0 0 0 0 0 0 0 0 0 3 0 0 0 0 3 6 10 10 16 13 13 26 29 29 45 39 39 39 39 35 39 39 39 35 35 32 35 29 29 29 32 32 26 19 32 35 29 26 32
0 0 0 0 0 0 0 0 0 0 3 0 0 0 3 6 10 10 16 16 19 23 26 26 35 35 35 35 29 35 32 39 39 39 35 35 39 35 29 32 35 29 26 29 32 35 26 23 26
0 0 0 0 0 0 0 0 0 3 0 0 0 0 3 6 10 10 10 10 10 13 16 19 23 23 26 29 29 35 35 35 32 39 32 26 26 23 16 16 26 26 26 29 26 32 23 26 23
0 0 0 0 0 0 0 0 0 3 0 0 3 3 3 6 10 10 10 10 10 13 10 13 13 16 19 19 29 26 29 29 26 23 23 10 3 3 6 10 23 16 19 16 16 26 19 16 13
0 0 0 0 0 0 0 0 0 3 3 3 3 3 6 6 10 10 10 10 10 10 10 13 13 13 13 13 13 13 10 3 6 6 3 0 0 3 3 3 13 10 6 10 16 16 13 10 0
0 0 0 0 0 0 0 0 0 0 3 3 3 0 6 10 10 10 10 10 10 6 10 13 10 10 6 6 6 6 3 3 0 0 0 0 0 0 0 0 0 0 0 0 0 3 3 0 0
0 0 0 0 0 0 0 0 0 0 0 3 3 3 6 6 6 10 10 10 6 6 6 6 10 10 6 3 3 3 0 0 0 0 0 0 0 0 0 0 0 0 0 0 0 0 0 0 0
0 0 0 0 0 0 0 0 0 0 0 3 3 0 6 6 3 3 6 10 6 6 6 10 10 10 0 3 3 3 0 0 0 0 0 0 0 0 0 0 0 0 0 0 0 0 0 0 0
0 0 0 0 0 0 0 0 0 3 3 3 3 3 0 0 0 0 0 6 10 6 6 6 6 6 0 3 3 0 0 0 0 0 0 0 0 0 0 0 0 0 0 0 3 0 0 0 0
0 0 0 0 0 0 0 0 0 3 3 3 3 3 3 0 0 0 0 3 10 10 6 6 6 3 3 3 0 0 0 0 0 0 0 0 0 0 0 0 0 0 0 0 0 0 0 0 0
0 0 0 0 0 0 0 0 0 0 0 0 3 3 3 3 0 0 0 0 0 0 3 6 6 6 3 3 0 0 0 0 0 0 0 0 0 0 0 0 0 0 0 0 0 0 0 0 0
0 0 0 0 0 0 0 0 0 0 0 0 0 3 3 3 3 3 0 0 3 0 0 3 6 6 6 3 0 0 0 0 0 0 0 0 0 0 0 0 0 0 0 0 0 0 0 0 0
0 0 0 0 0 0 0 0 0 0 0 0 0 3 3 3 3 3 3 3 6 3 0 3 6 6 6 3 0 0 0 0 0 0 0 0 0 0 0 0 0 0 0 0 0 0 0 0 0
0 0 0 0 0 0 0 0 0 0 0 0 0 0 3 0 3 3 3 3 3 3 6 3 6 3 6 3 0 0 0 0 0 0 0 0 0 0 0 0 0 0 0 0 0 0 0 0 0
0 0 0 0 0 0 0 0 0 0 0 0 0 0 0 3 3 3 3 3 0 3 3 0 0 0 0 0 0 0 0 0 0 0 0 0 0 0 0 0 0 0 0 0 0 0 0 0 0
0 0 0 0 0 0 0 0 0 0 0 0 0 0 3 3 0 0 3 3 0 0 3 0 0 0 0 0 0 0 0 0 0 0 0 0 0 0 0 0 0 0 0 0 0 0 0 0 0
0 0 0 0 0 0 0 0 0 0 0 0 0 0 0 0 0 0 0 3 3 0 0 0 0 0 0 0 0 0 0 0 0 0 0 0 0 0 0 0 0 0 0 0 0 0 0 0 0
0 0 0 0 0 0 0 0 0 0 0 0 0 0 0 0 0 0 0 3 3 0 0 0 0 0 0 0 0 0 0 0 0 0 0 0 0 0 0 0 0 0 0 0 0 0 0 0 0
0 0 0 0 0 0 0 0 0 0 0 0 0 0 0 0 0 0 0 0 0 0 0 0 0 0 0 0 0 0 0 0 0 0 0 0 0 0 0 0 0 0 0 0 0 0 0 0 0
0 0 0 0 0 0 0 0 0 0 0 0 0 0 0 0 0 0 0 0 3 0 3 0 0 0 0 0 0 0 0 0 0 0 0 0 0 0 0 0 0 0 0 0 0 0 0 0 0
0 0 0 0 0 0 0 0 0 0 0 0 0 0 0 0 0 0 0 0 0 3 3 3 0 0 0 0 0 0 0 0 0 0 0 0 0 0 0 0 0 0 0 0 0 0 0 0 0
0 0 0 0 0 0 0 0 0 0 0 0 0 0 0 0 0 0 0 0 0 0 3 3 3 0 0 0 0 0 0 0 0 0 0 0 0 0 0 0 0 0 0 0 0 0 0 0 0
0 0 0 0 0 0 0 0 0 0 0 0 0 0 0 0 0 0 0 0 0 0 0 0 3 0 0 0 0 0 0 0 0 0 0 0 0 0 0 0 0 0 0 0 0 0 0 0 0
0 0 0 0 0 0 0 0 0 0 0 0 0 0 0 0 0 0 0 0 0 0 0 0 0 0 0 0 0 0 0 0 0 0 0 0 0 0 0 0 0 0 0 0 0 0 0 0 0
0 0 0 0 0 0 0 0 0 0 0 0 0 0 0 0 0 0 0 0 0 0 0 0 0 0 0 0 0 0 0 0 0 0 0 0 0 0 0 0 0 0 0 0 0 0 0 0 0
Height
5852 5852 5853 5855 5856 5856 5856 5857 5857 5858 5858 5859 5859 5859 5860 5860 5861 5864 5862 5860 5861 5860 5860 5860 5860 5860 5860 5859 5859 5859 5859 5859 5859 5859 5858 5860 5862 5863 5864 5865 5865 5866 5866 5867 5867 5867 5868 5868 5868
5851 5852 5854 5855 5855 5856 5856 5857 5857 5857 5858 5858 5858 5859 5859 5859 5860 5860 5860 5860 5860 5860 5860 5860 5860 5859 5859 5859 5859 5859 5859 5858 5858 5859 5859 5860 5861 5862 5863 5864 5864 5865 5865 5866 5866 5866 5867 5867 5867
5851 5852 5854 5854 5854 5855 5856 5856 5856 5857 5857 5858 5858 5858 5858 5859 5859 5859 5859 5859 5860 5859 5859 5859 5859 5859 5858 5858 5858 5858 5858 5858 5858 5858 5859 5859 5860 5861 5862 5862 5863 5864 5864 5865 5865 5865 5865 5866 5866
5851 5852 5853 5853 5853 5854 5854 5855 5856 5856 5856 5857 5857 5857 5857 5858 5858 5858 5858 5859 5859 5859 5858 5858 5858 5858 5858 5858 5858 5857 5858 5858 5858 5857 5858 5858 5859 5860 5860 5861 5862 5862 5863 5863 5863 5864 5864 5864 5865
5850 5851 5851 5852 5852 5853 5853 5854 5854 5855 5855 5856 5856 5856 5856 5857 5857 5857 5857 5857 5858 5858 5857 5857 5857 5857 5857 5857 5857 5857 5857 5857 5857 5857 5857 5857 5858 5858 5859 5860 5860 5860 5861 5861 5862 5862 5862 5863 5863
5849 5849 5850 5850 5851 5851 5852 5853 5853 5853 5853 5854 5855 5855 5855 5855 5855 5856 5856 5856 5856 5856 5856 5856 5856 5856 5856 5856 5856 5855 5855 5856 5856 5856 5856 5856 5856 5857 5858 5858 5858 5859 5859 5859 5860 5860 5861 5861 5861
5848 5848 5848 5849 5850 5850 5851 5851 5852 5852 5852 5853 5853 5853 5853 5854 5854 5854 5855 5855 5855 5855 5855 5855 5855 5855 5855 5855 5854 5854 5854 5854 5854 5854 5855 5855 5855 5856 5856 5856 5857 5857 5857 5858 5858 5858 5859 5859 5859
5845 5847 5846 5847 5848 5849 5849 5849 5850 5850 5850 5851 5851 5852 5852 5852 5853 5853 5853 5853 5853 5853 5853 5853 5853 5853 5853 5853 5853 5853 5853 5853 5853 5853 5853 5853 5853 5854 5854 5854 5855 5855 5855 5856 5856 5856 5856 5857 5857
5843 5845 5845 5846 5846 5846 5847 5847 5848 5848 5848 5849 5849 5850 5850 5851 5851 5851 5852 5852 5852 5852 5852 5852 5852 5852 5852 5852 5851 5851 5851 5851 5851 5851 5852 5852 5852 5852 5852 5852 5852 5853 5853 5854 5854 5854 5854 5854 5854
5841 5842 5843 5844 5844 5844 5844 5845 5845 5846 5846 5847 5847 5848 5848 5849 5849 5849 5850 5850 5850 5850 5850 5850 5850 5850 5850 5850 5850 5850 5850 5850 5850 5850 5850 5850 5850 5850 5850 5850 5850 5851 5851 5851 5851 5851 5852 5852 5852
5838 5840 5840 5841 5841 5842 5842 5843 5843 5844 5844 5844 5845 5845 5846 5846 5847 5847 5847 5848 5848 5848 5848 5848 5848 5848 5848 5848 5848 5848 5848 5848 5848 5848 5848 5848 5848 5848 5848 5848 5849 5849 5849 5849 5849 5849 5849 5850 5850
5836 5837 5838 5838 5839 5840 5840 5840 5841 5841 5842 5842 5842 5843 5844 5844 5844 5845 5845 5845 5845 5845 5846 5846 5846 5846 5846 5846 5846 5846 5846 5846 5846 5846 5846 5846 5846 5846 5846 5846 5846 5846 5846 5846 5846 5847 5847 5847 5848
5833 5835 5835 5836 5836 5837 5838 5838 5839 5839 5839 5840 5840 5841 5841 5842 5842 5842 5843 5843 5843 5843 5843 5843 5844 5843 5843 5843 5844 5844 5844 5844 5844 5844 5844 5844 5844 5844 5844 5844 5844 5844 5844 5844 5844 5844 5845 5845 5845
5831 5832 5832 5833 5833 5834 5835 5836 5837 5837 5837 5838 5838 5839 5839 5839 5840 5840 5840 5841 5841 5841 5841 5841 5841 5841 5841 5841 5841 5842 5842 5842 5842 5842 5842 5842 5842 5842 5842 5842 5842 5842 5842 5842 5842 5842 5842 5843 5843
5827 5829 5830 5830 5831 5832 5833 5834 5834 5835 5835 5836 5836 5836 5837 5837 5837 5838 5838 5838 5838 5839 5839 5839 5839 5839 5839 5839 5839 5839 5839 5839 5839 5839 5839 5840 5840 5840 5840 5840 5840 5840 5840 5840 5840 5840 5840 5840 5840
5824 5825 5827 5828 5828 5829 5832 5832 5832 5832 5833 5833 5834 5834 5834 5835 5835 5835 5836 5836 5836 5836 5836 5836 5836 5837 5837 5837 5837 5837 5837 5837 5837 5837 5837 5837 5837 5837 5838 5838 5838 5838 5837 5837 5837 5837 5837 5838 5838
5820 5822 5824 5825 5825 5826 5828 5829 5830 5830 5830 5831 5831 5831 5832 5832 5833 5833 5833 5833 5834 5834 5833 5834 5833 5834 5834 5834 5834 5834 5834 5834 5834 5834 5834 5835 5835 5835 5835 5836 5836 5836 5835 5835 5835 5835 5835 5835 5835
5818 5819 5821 5822 5823 5824 5825 5826 5827 5827 5828 5828 5829 5829 5829 5830 5830 5830 5830 5831 5831 5831 5831 5831 5831 5831 5831 5831 5831 5831 5831 5831 5831 5831 5832 5832 5832 5832 5833 5833 5833 5833 5833 5833 5833 5833 5833 5833 5833
5816 5817 5818 5819 5820 5821 5822 5823 5824 5824 5825 5826 5826 5827 5827 5827 5827 5827 5827 5828 5828 5828 5828 5828 5828 5828 5828 5828 5828 5828 5828 5828 5828 5829 5829 5829 5829 5830 5830 5830 5830 5830 5830 5830 5830 5830 5830 5830 5830
5813 5814 5815 5816 5817 5818 5819 5820 5821 5821 5822 5823 5823 5824 5824 5824 5824 5824 5824 5825 5825 5825 5824 5824 5824 5824 5824 5824 5825 5825 5825 5825 5825 5826 5826 5826 5826 5827 5827 5827 5827 5827 5827 5827 5827 5827 5827 5827 5827
5809 5811 5812 5813 5814 5815 5816 5818 5818 5818 5819 5820 5820 5820 5821 5821 5821 5821 5821 5822 5822 5821 5821 5821 5821 5820 5820 5821 5821 5821 5821 5821 5822 5822 5823 5823 5823 5823 5823 5824 5824 5824 5824 5824 5824 5823 5823 5823 5823
5807 5808 5809 5810 5811 5812 5813 5814 5815 5815 5816 5817 5817 5818 5818 5818 5818 5818 5818 5818 5818 5818 5818 5817 5817 5817 5816 5817 5817 5817 5817 5818 5818 5818 5819 5819 5819 5819 5820 5820 5820 5820 5820 5820 5820 5820 5820 5820 5819
5804 5805 5806 5807 5807 5808 5809 5810 5812 5812 5812 5814 5814 5814 5814 5814 5814 5814 5814 5814 5814 5814 5814 5814 5813 5813 5812 5812 5812 5813 5813 5813 5813 5814 5814 5814 5815 5815 5815 5815 5815 5816 5816 5816 5816 5816 5816 5815 5815
5801 5802 5802 5803 5804 5805 5806 5807 5808 5809 5810 5810 5810 5810 5810 5811 5811 5810 5810 5810 5810 5810 5810 5810 5809 5809 5808 5808 5808 5808 5808 5808 5809 5809 5809 5809 5810 5810 5810 5810 5811 5811 5811 5811 5811 5811 5811 5811 5811
5798 5799 5799 5799 5800 5801 5802 5802 5805 5805 5806 5806 5807 5807 5807 5807 5807 5807 5806 5806 5806 5806 5806 5805 5805 5804 5804 5803 5803 5803 5803 5803 5804 5804 5804 5804 5804 5805 5805 5805 5806 5806 5806 5806 5806 5806 5806 5806 5806
5794 5795 5797 5797 5797 5798 5798 5799 5801 5801 5802 5802 5802 5803 5803 5803 5803 5803 5802 5802 5802 5801 5801 5801 5800 5799 5799 5799 5798 5798 5798 5798 5799 5798 5798 5799 5799 5799 5799 5799 5800 5800 5801 5801 5801 5801 5801 5801 5801
5791 5792 5793 5793 5793 5794 5795 5796 5797 5797 5798 5798 5799 5799 5799 5799 5799 5798 5798 5797 5797 5797 5796 5796 5795 5794 5794 5794 5793 5793 5793 5793 5793 5793 5793 5793 5793 5793 5793 5794 5794 5795 5795 5795 5796 5796 5796 5796 5796
5789 5789 5789 5789 5789 5790 5791 5792 5793 5793 5794 5794 5794 5794 5794 5794 5794 5793 5793 5792 5792 5792 5791 5790 5790 5789 5789 5789 5788 5788 5788 5788 5787 5787 5787 5787 5787 5787 5787 5787 5788 5788 5789 5789 5790 5790 5790 5790 5790
5785 5785 5785 5786 5786 5786 5787 5791 5789 5789 5789 5790 5790 5790 5790 5789 5789 5789 5788 5788 5787 5787 5786 5785 5784 5784 5783 5783 5783 5782 5782 5782 5782 5781 5781 5780 5780 5780 5780 5781 5781 5782 5782 5783 5783 5784 5784 5784 5784
5780 5781 5781 5782 5782 5782 5783 5788 5785 5785 5785 5785 5785 5785 5784 5784 5784 5783 5783 5782 5781 5781 5780 5779 5778 5778 5777 5777 5777 5777 5776 5776 5775 5775 5775 5774 5774 5774 5774 5774 5774 5775 5776 5776 5777 5777 5778 5778 5778
Wind_Speed
3 4 4 4 4 4 4 4 4 4 3 3 3 2 2 1 1 2 2 1 1 1 1 2 2 2 3 3 3 3 4 4 4 4 3 4 4 4 4 3 3 4 4 4 4 4 4 5 4
4 4 5 4 4 4 4 4 4 4 4 4 4 3 3 2 1 2 2 2 2 2 2 3 3 3 3 3 3 4 4 5 5 4 4 5 5 5 5 5 4 5 5 5 6 6 6 6 6
5 5 5 5 5 5 5 5 5 5 5 5 5 4 4 3 3 3 3 4 4 4 4 4 4 4 4 4 4 4 4 4 4 4 4 4 5 5 5 5 5 6 6 6 7 7 7 7 7
6 6 6 6 5 5 6 6 5 6 6 6 5 5 5 5 4 5 5 5 5 5 5 5 5 5 4 4 4 4 4 5 5 4 4 4 5 5 6 6 6 6 6 7 7 7 7 8 8
8 8 7 6 6 6 6 6 6 7 7 7 6 6 6 6 5 5 5 6 6 6 6 5 5 5 5 5 4 5 4 4 5 5 4 5 5 5 5 6 7 7 7 7 7 8 8 8 8
8 8 7 6 6 7 7 7 7 7 7 8 7 7 7 7 7 6 6 6 6 7 6 6 6 6 6 5 6 5 5 5 5 5 5 5 5 6 6 6 7 8 8 8 8 8 9 9 9
8 8 7 7 7 8 8 8 8 8 8 8 7 8 7 7 7 7 7 8 8 7 7 7 6 6 6 6 6 6 6 6 7 6 6 6 5 6 6 7 8 8 8 8 9 9 9 10 9
9 8 8 8 8 8 9 9 9 8 8 9 8 8 8 8 8 8 8 8 8 8 8 7 7 6 6 6 7 7 7 7 7 7 7 7 7 7 7 8 8 8 8 8 9 10 10 10 10
9 9 9 9 9 9 10 10 10 9 9 9 9 9 8 8 9 9 8 8 9 8 8 8 7 7 7 7 7 7 7 7 7 7 7 7 8 8 8 8 9 9 9 9 9 9 10 10 10
10 9 9 10 10 10 10 10 10 10 9 9 10 9 9 9 9 9 9 9 9 9 9 8 8 8 8 8 8 8 8 7 7 7 8 8 8 8 8 9 9 9 9 10 10 9 9 9 9
10 10 10 11 10 10 10 10 10 10 10 10 10 10 10 10 10 10 10 9 9 10 10 10 10 9 9 9 9 9 8 8 8 8 8 8 9 9 9 9 9 9 9 10 10 10 9 9 10
11 11 11 11 11 11 10 10 10 10 9 10 10 9 10 10 10 9 9 9 9 10 10 10 9 9 9 10 10 9 9 9 9 9 9 8 8 9 9 9 9 9 9 9 9 10 10 10 10
12 12 12 12 11 11 10 10 10 9 9 9 8 8 9 9 9 9 8 9 9 9 9 10 10 10 10 10 10 9 9 9 9 9 9 8 8 8 9 9 9 9 9 9 9 9 10 9 9
12 12 12 12 12 12 11 10 10 10 10 9 9 8 8 8 9 9 9 9 9 9 9 9 10 10 10 10 10 10 10 10 10 9 8 8 8 8 8 8 9 9 9 9 9 10 10 10 9
13 13 13 13 12 12 11 11 10 10 10 9 9 9 8 8 8 8 9 10 9 9 10 10 10 11 10 10 11 11 11 10 11 10 9 9 8 8 9 8 9 9 9 9 9 8 9 9 9
14 13 14 13 13 12 12 11 10 10 10 10 11 10 9 9 8 8 9 10 10 10 10 11 11 12 11 11 11 11 11 11 11 11 10 10 9 9 8 8 8 8 8 9 8 8 8 9 9
13 13 13 13 13 13 12 11 10 11 11 11 11 11 10 9 9 9 9 10 10 11 11 12 13 12 12 12 12 12 11 12 12 11 10 10 10 9 8 8 9 9 9 9 9 9 9 9 9
12 12 12 12 12 12 12 11 11 11 11 11 11 10 10 10 10 9 10 10 10 11 12 12 13 13 13 13 12 12 12 12 12 12 11 11 10 10 10 10 10 10 10 10 10 10 10 10 10
12 12 12 12 13 13 12 12 12 12 12 12 12 11 11 11 11 11 11 11 11 12 13 13 13 13 13 13 13 12 12 12 13 13 12 12 11 11 11 11 11 11 11 11 11 11 10 10 10
13 13 12 12 13 13 13 13 13 13 13 13 12 12 12 12 12 12 12 12 12 13 14 14 14 14 14 13 13 13 13 13 13 13 13 13 13 12 12 12 12 12 12 12 12 12 11 11 11
13 13 13 13 14 13 14 14 14 14 13 13 13 13 12 12 12 12 12 12 13 13 14 14 14 14 13 13 14 14 14 14 14 14 15 15 15 14 14 13 13 13 13 13 13 13 13 12 12
12 12 13 13 14 14 14 14 15 14 14 13 13 13 12 13 13 13 13 13 13 13 13 14 14 15 14 15 15 15 14 14 15 15 15 15 16 15 15 15 15 14 14 14 14 14 14 14 13
12 12 13 14 14 15 14 15 14 15 14 14 13 13 13 14 13 13 13 14 14 14 14 15 15 16 16 15 15 15 15 15 16 16 16 16 16 16 16 16 16 15 15 15 14 15 15 15 15
12 13 13 14 15 16 14 14 13 14 14 14 15 14 14 14 13 13 14 14 15 15 16 16 16 16 16 16 16 16 16 16 17 17 17 17 17 17 17 17 17 17 16 16 16 16 16 16 16
13 12 13 14 15 15 14 14 13 13 14 15 16 16 15 14 14 14 14 15 15 15 16 17 17 16 17 17 17 16 16 17 17 18 18 18 18 18 18 18 17 18 17 17 17 17 17 17 17
12 13 13 14 14 14 14 14 13 13 13 14 15 15 15 15 15 15 15 15 16 16 16 17 17 17 17 17 16 17 17 17 17 18 18 18 19 19 18 18 18 18 18 18 18 18 18 18 18
13 13 13 14 15 15 15 15 14 14 14 14 15 16 16 15 15 15 16 16 16 17 17 17 18 17 17 17 17 17 17 17 18 18 19 19 19 20 20 20 20 20 19 20 19 19 19 19 19
14 14 14 15 16 16 16 15 16 15 15 15 16 16 16 16 16 16 17 17 17 18 18 18 18 18 18 18 18 18 18 18 18 19 20 20 20 21 21 21 21 21 20 20 20 20 20 20 20
15 15 16 16 17 17 17 15 16 16 15 16 17 17 17 17 17 18 18 18 18 18 18 19 18 18 19 19 19 19 19 20 20 20 20 20 21 21 21 21 21 22 21 21 20 20 20 21 21
16 16 17 17 18 18 18 16 16 16 16 17 17 18 18 18 18 18 18 19 19 19 19 19 18 19 19 19 20 20 20 21 21 21 21 21 21 21 21 21 21 22 22 21 20 20 21 21 21
Wind_Direction
237 234 239 236 235 236 237 237 238 241 240 237 230 235 233 230 231 219 214 217 244 274 264 273 293 297 303 310 315 310 296 289 283 274 254 238 246 249 248 249 258 261 267 272 274 281 275 268 264
242 246 250 243 244 247 240 237 242 246 253 253 250 254 259 260 244 241 251 259 260 262 286 293 294 291 295 301 307 305 296 285 281 279 257 244 251 254 253 251 257 262 268 270 275 276 270 267 266
248 254 254 248 254 256 250 248 247 250 255 257 256 257 261 264 258 257 258 259 259 266 280 289 291 290 291 293 294 295 294 290 286 276 269 260 262 265 261 257 258 262 265 269 273 270 267 269 267
254 258 258 256 258 259 259 259 254 253 255 259 259 261 261 262 260 259 257 257 260 266 274 279 283 284 285 292 295 288 291 296 294 284 275 268 267 272 265 261 260 262 265 268 269 268 269 270 272
255 259 262 261 258 257 256 258 259 258 256 260 263 264 261 262 261 259 257 258 260 263 266 269 273 274 283 286 291 289 285 289 282 273 268 267 263 262 260 261 262 264 266 268 269 270 271 270 271
259 261 260 259 260 260 261 262 261 262 261 255 258 262 262 260 259 259 259 260 261 261 264 266 267 270 279 284 283 290 288 285 283 269 259 261 264 264 262 268 268 267 268 269 268 267 268 269 269
258 258 254 257 262 262 260 261 261 262 261 254 255 259 259 258 260 263 263 260 262 264 266 268 268 270 272 274 275 278 280 283 284 278 268 264 264 267 264 265 270 268 267 267 266 265 264 264 268
257 258 254 257 264 263 261 260 260 259 261 259 257 256 256 257 260 265 264 260 260 262 266 267 270 272 273 274 274 274 275 277 279 277 274 273 271 270 266 261 266 265 263 265 265 265 266 266 267
257 257 258 257 258 261 261 260 259 261 260 261 261 259 257 258 261 264 264 261 259 260 261 262 266 270 271 275 277 276 274 273 274 271 270 272 274 272 266 261 264 264 264 265 266 266 267 266 266
257 257 258 259 260 262 262 263 265 266 263 261 261 259 258 259 259 261 261 262 260 260 261 260 264 266 268 270 274 274 272 270 271 271 270 269 272 271 268 268 266 262 262 264 265 264 265 265 265
253 256 259 258 259 259 261 265 267 268 266 265 261 257 258 258 258 259 259 260 259 259 259 261 265 267 269 271 271 269 267 266 268 270 271 268 267 268 269 270 268 264 265 266 264 263 262 263 265
250 253 258 260 260 260 261 265 267 265 266 264 260 257 259 256 257 260 261 261 259 258 259 261 265 266 268 269 269 267 265 262 265 270 270 268 269 267 268 269 269 270 272 272 271 268 265 265 265
248 252 255 257 257 259 260 265 267 264 261 261 261 260 259 254 254 254 258 260 259 258 262 263 264 266 268 268 268 265 263 264 264 264 265 266 270 269 268 270 270 272 274 274 271 268 266 265 267
249 249 251 253 255 255 258 262 265 264 261 262 263 263 262 256 257 258 257 259 261 260 261 265 266 267 267 269 269 267 263 261 262 261 261 266 269 270 269 270 270 273 275 275 275 271 268 267 269
249 249 249 250 252 254 258 257 258 260 262 265 265 262 258 258 260 259 254 258 259 260 263 265 267 267 267 266 267 266 264 262 261 262 262 268 272 272 270 271 273 275 275 276 274 273 269 267 270
247 249 249 247 249 251 254 254 255 258 262 263 264 262 258 258 258 260 258 258 258 264 267 268 268 268 268 267 266 264 263 263 261 261 263 268 272 273 269 272 273 275 276 277 276 276 272 268 269
246 249 249 249 249 249 251 251 255 258 260 261 262 262 261 257 257 259 261 262 263 265 268 272 268 265 266 268 268 265 264 262 260 260 263 265 266 270 271 275 274 272 273 273 276 276 272 271 270
251 251 250 250 250 251 251 253 254 257 258 258 258 261 261 257 258 260 263 266 265 267 270 273 268 264 265 268 269 266 264 262 260 260 261 264 265 269 272 275 276 275 272 270 270 269 270 271 272
251 251 251 248 250 252 253 253 252 253 256 257 257 259 261 259 259 262 263 268 266 270 273 274 268 268 267 265 266 265 264 262 260 260 260 262 263 267 271 272 275 275 271 268 267 265 267 272 271
249 250 249 248 252 254 255 255 253 253 255 257 258 258 259 260 261 263 265 267 270 274 275 273 267 267 264 262 263 263 262 262 260 259 260 261 261 265 270 273 273 274 273 267 266 264 266 269 270
251 250 250 250 252 256 256 254 253 252 252 255 257 259 259 261 264 265 265 267 271 274 274 270 270 268 265 264 264 264 263 263 262 260 259 262 264 264 266 270 272 272 273 270 268 267 265 267 268
253 253 254 253 253 255 257 256 252 251 252 255 258 255 257 261 264 266 267 268 270 272 272 271 270 269 267 265 264 264 264 263 263 264 263 264 262 262 265 268 270 272 271 270 269 267 268 269 270
256 257 257 255 255 258 260 261 253 251 254 255 259 259 261 262 265 267 268 269 269 270 272 273 273 271 269 264 264 263 263 262 263 265 265 264 262 263 265 268 268 269 268 269 270 268 269 272 272
258 257 258 257 257 259 261 261 255 251 253 256 259 262 265 266 269 270 271 271 271 270 271 272 275 275 274 268 267 266 264 263 264 265 265 264 263 264 266 267 266 266 267 267 268 269 269 271 272
263 261 258 257 258 261 263 264 261 257 257 258 262 266 268 267 269 270 272 272 273 274 275 275 278 277 276 272 268 267 265 264 265 266 266 266 264 265 266 266 265 264 266 266 266 267 268 270 271
266 266 262 261 260 262 264 264 264 264 260 261 264 265 266 269 273 276 277 274 274 274 276 277 277 275 275 275 273 270 268 267 267 267 267 267 266 265 265 263 264 264 264 266 267 267 267 268 270
265 267 266 265 264 264 263 263 262 266 264 262 265 267 268 271 274 278 277 275 273 273 275 276 276 273 272 274 276 273 268 267 267 267 268 269 267 265 264 263 263 263 263 265 267 266 267 268 270
265 266 264 265 267 267 266 264 265 266 264 263 267 269 270 272 275 278 278 275 273 273 272 272 273 274 272 272 272 269 265 266 267 269 269 270 269 267 264 264 263 263 263 264 266 268 267 269 270
264 264 263 266 268 270 268 266 269 270 268 268 269 270 272 272 274 276 277 277 275 274 273 272 273 272 271 271 268 267 266 266 267 269 269 270 270 268 266 265 265 264 263 264 265 268 269 270 270
262 262 264 265 268 270 272 271 272 273 269 269 269 270 271 273 275 275 275 276 275 274 273 271 271 272 271 267 266 266 266 267 268 269 270 271 270 269 266 266 266 266 265 264 264 266 269 272 272